1535799600.89,42297,20.56,74688.5,15.99,2.81,5.89,0,*4C
1535799602.12,42298,20.56,74684.3,16.01,2.05,5.11,0,*4C
1535799603.37,42299,20.63,74688.3,16.01,3.23,6.13,0,*49
1535799604.61,42300,20.56,74688.5,16.01,3.71,6.39,0,*47
1535799605.86,42301,20.56,74690.8,16.01,3.37,6.39,0,*44
1535799607.11,42302,20.63,74690.8,16.01,3.67,6.35,0,*4E
1535799608.33,42303,20.63,74688.8,16.01,3.19,6.21,0,*43
1535799609.56,42304,20.63,74692.3,16.01,3.19,5.99,0,*44
1535799610.75,42305,20.56,74688.0,16.03,2.05,4.49,0,*47
1535799611.98,42306,20.63,74688.8,15.97,1.85,4.19,0,*44
1535799613.19,42307,20.63,74690.0,15.95,2.43,4.33,0,*46
1535799614.41,42308,20.56,74686.5,15.93,2.25,3.89,0,*49
1535799615.62,42309,20.56,74688.8,15.89,2.91,4.57,0,*48
1535799616.82,42310,20.63,74688.8,15.85,4.11,5.63,0,*44
1535799618.05,42311,20.56,74688.3,15.81,5.11,6.47,0,*45
1535799619.25,42312,20.63,74690.5,15.83,5.49,6.47,0,*49
1535799620.49,42313,20.63,74690.8,15.81,6.25,7.15,0,*45
1535799621.72,42314,20.63,74688.3,15.81,6.39,7.37,0,*4F
1535799622.92,42315,20.63,74690.3,15.81,6.97,7.97,0,*40
1535799624.18,42316,20.56,74686.0,15.81,7.77,8.71,0,*4B
1535799625.38,42317,20.56,74686.8,15.81,8.15,9.07,0,*41
1535799626.58,42318,20.56,74686.5,15.81,8.61,9.29,0,*41
1535799627.8,42319,20.63,74686.5,15.81,8.51,9.33,0,*48
1535799628.98,42320,20.63,74688.0,15.83,8.09,8.83,0,*47
1535799630.15,42321,20.56,74684.0,15.83,8.45,9.29,0,*4F
1535799631.4,42322,20.63,74688.0,15.85,8.75,9.57,0,*40
1535799632.64,42323,20.63,74686.3,15.85,8.47,9.43,0,*45
1535799633.9,42324,20.56,74686.8,15.85,8.55,9.53,0,*40
1535799635.14,42325,20.63,74686.0,15.89,8.37,9.39,0,*45
1535799636.4,42326,20.56,74686.5,15.89,8.89,9.85,0,*44
1535799637.63,42327,20.56,74684.8,15.91,9.53,10.19,0,*77
1535799638.85,42328,20.63,74690.0,15.95,9.67,10.31,0,*71
1535799640.07,42329,20.63,74688.3,15.97,9.21,9.77,0,*4A
1535799641.3,42330,20.56,74688.0,15.99,8.89,9.35,0,*49
1535799642.5,42331,20.56,74690.3,15.99,8.29,8.45,0,*44
1535799643.72,42332,20.63,74690.3,16.01,7.87,8.15,0,*4B
1535799644.93,42333,20.63,74690.8,15.99,7.79,7.83,0,*49
1535799646.13,42334,20.63,74690.0,16.03,7.41,7.15,0,*4A
1535799647.37,42335,20.63,74688.3,16.01,6.39,6.13,0,*40
1535799648.62,42336,20.63,74688.5,16.01,6.69,6.39,0,*4E
1535799649.82,42337,20.63,74688.3,15.99,6.53,6.25,0,*49
1535799651.02,42338,20.63,74690.5,15.97,5.95,5.63,0,*40
1535799652.23,42339,20.56,74686.5,15.99,5.85,5.63,0,*4E
1535799653.46,42340,20.63,74688.8,15.97,5.93,5.67,0,*4D
1535799654.69,42341,20.56,74686.8,15.97,5.15,5.01,0,*42
1535799655.87,42342,20.63,74686.3,15.95,5.33,5.15,0,*42
1535799657.05,42343,20.56,74684.8,15.95,5.11,5.11,0,*47
1535799658.25,42344,20.63,74686.8,15.95,4.49,4.59,0,*41
1535799659.45,42345,20.56,74684.8,15.91,4.37,4.59,0,*4D
1535799660.68,42346,20.63,74688.3,15.89,4.33,4.59,0,*43
1535799661.93,42347,20.63,74686.8,15.89,4.67,4.97,0,*41
1535799663.12,42348,20.63,74686.3,15.83,5.19,5.59,0,*4F
1535799664.34,42349,20.63,74688.3,15.79,5.07,5.73,0,*4C
1535799665.54,42350,20.63,74686.5,15.77,4.63,5.29,0,*46
1535799666.74,42351,20.63,74688.3,15.75,4.81,5.37,0,*46
1535799667.99,42352,20.63,74686.5,15.75,5.01,5.51,0,*4C
1535799669.18,42353,20.63,74684.5,15.75,5.49,6.07,0,*41
1535799670.41,42354,20.63,74686.3,15.71,5.77,6.33,0,*48
1535799671.64,42355,20.56,74684.0,15.71,6.33,6.69,0,*45
1535799672.84,42356,20.56,74684.8,15.67,6.07,6.21,0,*4A
1535799674.07,42357,20.56,74686.0,15.67,5.51,5.63,0,*4E
1535799675.3,42358,20.63,74688.8,15.63,4.85,4.75,0,*4B
1535799676.48,42359,20.63,74688.3,15.61,5.15,5.15,0,*47
1535799677.67,42360,20.63,74690.5,15.57,5.99,5.95,0,*44
1535799678.88,42361,20.63,74690.5,15.53,5.67,5.55,0,*4C
1535799680.1,42362,20.63,74690.3,15.53,6.53,6.53,0,*4E
1535799681.31,42363,20.63,74688.8,15.49,6.83,6.91,0,*47
1535799682.57,42364,20.63,74688.8,15.51,6.43,6.51,0,*49
1535799683.8,42365,20.63,74688.5,15.49,6.47,6.73,0,*45
1535799685.03,42366,20.63,74688.0,15.45,5.99,6.39,0,*44
1535799686.25,42367,20.63,74690.0,15.45,5.19,5.77,0,*44
1535799687.43,42368,20.63,74688.8,15.39,5.07,5.67,0,*4E
1535799688.66,42369,20.63,74690.0,15.37,5.19,5.85,0,*42
1535799689.89,42370,20.63,74688.0,15.33,5.15,5.93,0,*45
1535799691.1,42371,20.63,74690.5,15.31,4.53,5.27,0,*4A
1535799692.3,42372,20.63,74688.5,15.29,5.07,5.71,0,*43
1535799693.53,42373,20.63,74688.0,15.25,4.93,5.63,0,*41
1535799694.74,42374,20.63,74688.0,15.23,5.15,5.93,0,*40
1535799695.95,42375,20.63,74688.0,15.21,5.23,6.11,0,*4F
1535799697.16,42376,20.63,74690.8,15.21,5.23,6.11,0,*4C
1535799698.36,42377,20.63,74690.5,15.15,5.15,6.07,0,*48
1535799699.54,42378,20.63,74688.3,15.13,5.11,6.03,0,*41
1535799700.71,42379,20.63,74686.0,15.13,5.37,6.21,0,*44
1535799701.91,42380,20.63,74684.8,15.09,5.27,6.03,0,*48
1535799703.11,42381,20.63,74688.0,15.09,5.45,6.17,0,*48
1535799704.36,42382,20.63,74690.5,15.07,5.51,6.43,0,*41
1535799705.56,42383,20.63,74686.5,15.05,5.71,6.61,0,*40
1535799706.78,42384,20.63,74688.5,15.05,5.81,6.61,0,*48
1535799707.99,42385,20.63,74688.8,15.05,5.93,6.75,0,*4F
1535799709.22,42386,20.63,74684.3,15.03,6.07,6.87,0,*49
1535799710.46,42387,20.63,74688.0,15.03,6.11,6.87,0,*4F
1535799711.66,42388,20.63,74686.8,14.99,6.07,6.83,0,*41
1535799712.91,42389,20.63,74688.5,14.99,6.13,6.73,0,*4A
1535799714.12,42390,20.63,74688.0,14.95,5.67,6.21,0,*49
1535799715.3,42391,20.63,74686.5,14.93,5.71,6.11,0,*4A
1535799716.53,42392,20.63,74686.0,14.91,5.99,6.39,0,*47
1535799717.77,42393,20.63,74686.8,14.91,6.29,6.69,0,*4B
1535799719.03,42394,20.56,74684.0,14.87,6.13,6.43,0,*4A
1535799720.27,42395,20.63,74686.8,14.87,6.51,6.79,0,*44
1535799721.5,42396,20.56,74680.5,14.83,6.47,6.79,0,*44
1535799722.7,42397,20.63,74686.0,14.83,5.99,6.21,0,*48
1535799723.91,42398,20.63,74686.0,14.83,5.95,6.11,0,*48
1535799725.15,42399,20.63,74684.5,14.79,6.29,6.43,0,*4F
1535799726.38,42400,20.63,74686.8,14.79,5.55,5.67,0,*45
1535799727.58,42401,20.63,74684.3,14.75,6.07,6.29,0,*45
1535799728.8,42402,20.63,74686.3,14.75,6.87,7.01,0,*45
1535799730.02,42403,20.63,74684.5,14.69,6.13,6.33,0,*44
1535799731.25,42404,20.63,74686.3,14.69,5.81,5.93,0,*42
1535799732.46,42405,20.63,74686.5,14.67,6.11,6.21,0,*4D
1535799733.69,42406,20.63,74688.8,14.65,6.51,6.73,0,*4F
1535799734.87,42407,20.63,74684.8,14.61,6.93,7.09,0,*48
1535799736.08,42408,20.63,74686.8,14.61,6.97,7.11,0,*4A
1535799737.26,42409,20.63,74688.8,14.61,6.93,7.01,0,*4E
1535799738.51,42410,20.63,74686.3,14.63,7.11,7.23,0,*4F
1535799739.72,42411,20.63,74686.5,14.61,6.93,7.11,0,*46
1535799740.96,42412,20.63,74688.5,14.59,6.87,6.97,0,*44
1535799742.16,42413,20.63,74686.3,14.57,7.27,7.41,0,*4A
1535799743.35,42414,20.63,74684.5,14.57,6.83,6.97,0,*48
1535799744.58,42415,20.63,74686.5,14.55,7.11,7.45,0,*4F
1535799745.8,42416,20.63,74688.8,14.55,7.33,7.47,0,*4E
1535799747.01,42417,20.63,74686.8,14.57,7.59,7.77,0,*42
1535799748.24,42418,20.63,74684.8,14.55,6.91,7.05,0,*4F
1535799749.45,42419,20.63,74684.8,14.53,6.91,7.05,0,*48
1535799750.68,42420,20.63,74686.0,14.53,7.27,7.47,0,*48
1535799751.92,42421,20.63,74688.5,14.53,6.35,6.57,0,*4B
1535799753.12,42422,20.63,74684.5,14.47,6.73,6.83,0,*46
1535799754.38,42423,20.63,74684.8,14.45,6.35,6.61,0,*4B
1535799755.61,42424,20.63,74690.3,14.45,6.25,6.39,0,*40
1535799756.81,42425,20.63,74690.5,14.43,6.91,7.01,0,*42
1535799758.06,42426,20.63,74686.5,14.41,6.39,6.53,0,*47
1535799759.31,42427,20.63,74688.5,14.41,6.91,7.19,0,*4B
1535799760.51,42428,20.63,74690.3,14.39,7.19,7.33,0,*42
1535799761.72,42429,20.63,74688.3,14.39,7.19,7.45,0,*42
1535799762.95,42430,20.63,74686.8,14.37,7.27,7.41,0,*4D
1535799764.13,42431,20.63,74688.5,14.39,7.41,7.59,0,*4B
1535799765.34,42432,20.63,74690.3,14.37,6.83,7.09,0,*4C
1535799766.55,42433,20.63,74684.5,14.37,7.41,7.55,0,*4B
1535799767.81,42434,20.63,74684.8,14.37,7.73,7.87,0,*42
1535799769.07,42435,20.63,74686.3,14.37,7.73,7.83,0,*47
1535799770.31,42436,20.63,74682.8,14.37,7.19,7.29,0,*48
1535799771.51,42437,20.63,74686.8,14.35,7.23,7.33,0,*49
1535799772.72,42438,20.63,74686.8,14.35,7.27,7.33,0,*42
1535799773.95,42439,20.63,74686.3,14.35,7.47,7.69,0,*4A
1535799775.18,42440,20.63,74686.8,14.35,7.83,7.83,0,*48
1535799776.38,42441,20.63,74688.0,14.35,7.95,8.01,0,*4B
1535799777.6,42442,20.63,74690.0,14.33,8.15,8.27,0,*4D
1535799778.87,42443,20.63,74686.8,14.33,7.61,7.69,0,*45
1535799780.1,42444,20.63,74684.3,14.33,7.95,8.05,0,*4C
1535799781.33,42445,20.63,74688.5,14.37,8.65,8.71,0,*4A
1535799782.51,42446,20.63,74684.5,14.35,8.69,8.79,0,*4F
1535799783.77,42447,20.63,74684.5,14.37,8.13,8.41,0,*4A
1535799784.97,42448,20.63,74686.8,14.35,8.09,8.41,0,*4C
1535799786.21,42449,20.63,74686.8,14.37,7.15,7.37,0,*43
1535799787.42,42450,20.63,74686.5,14.35,6.33,6.53,0,*4F
1535799788.65,42451,20.63,74686.3,14.31,6.61,7.19,0,*42
1535799789.89,42452,20.63,74688.8,14.33,7.47,7.59,0,*42
1535799791.1,42453,20.63,74688.5,14.31,7.23,7.45,0,*4E
1535799792.28,42454,20.63,74690.3,14.31,7.33,7.59,0,*45
1535799793.51,42455,20.63,74688.0,14.33,7.37,7.73,0,*4A
1535799794.74,42456,20.63,74686.5,14.31,7.65,7.87,0,*47
1535799795.95,42457,20.63,74690.8,14.31,8.01,8.37,0,*4F
1535799797.13,42458,20.63,74690.5,14.31,7.97,8.23,0,*45
1535799798.36,42459,20.63,74688.0,14.33,7.69,8.01,0,*47
1535799799.57,42460,20.63,74688.3,14.31,7.37,7.77,0,*4A
1535799800.78,42461,20.63,74690.3,14.31,7.45,7.91,0,*46
1535799801.98,42462,20.63,74690.5,14.31,7.45,7.87,0,*42
1535799803.22,42463,20.63,74690.0,14.31,7.91,8.33,0,*4A
1535799804.46,42464,20.63,74692.3,14.33,7.61,8.15,0,*44
1535799805.69,42465,20.63,74692.3,14.33,7.51,7.91,0,*45
1535799806.95,42466,20.63,74690.3,14.33,7.15,7.69,0,*41
1535799808.18,42467,20.63,74692.0,14.35,7.11,7.73,0,*49
1535799809.36,42468,20.63,74690.8,14.35,8.69,9.29,0,*47
1535799810.57,42469,20.63,74694.0,14.35,8.83,9.49,0,*44
1535799811.8,42470,20.63,74692.3,14.37,8.05,8.51,0,*48
1535799813.06,42471,20.63,74690.0,14.37,8.33,8.97,0,*46
1535799814.26,42472,20.63,74688.8,14.41,8.65,9.25,0,*4F
1535799815.49,42473,20.63,74688.8,14.41,8.59,9.25,0,*41
1535799816.72,42474,20.63,74688.8,14.45,8.41,9.07,0,*4B
1535799817.9,42475,20.63,74688.0,14.43,8.69,9.47,0,*42
1535799819.1,42476,20.63,74688.8,14.47,8.29,9.29,0,*49
1535799820.3,42477,20.63,74690.8,14.47,8.51,9.43,0,*4B
1535799821.51,42478,20.63,74688.5,14.55,7.79,8.83,0,*4F
1535799822.75,42479,20.63,74686.3,14.55,7.55,8.71,0,*4D
1535799824.0,42480,20.63,74690.5,14.55,7.83,9.19,0,*4F
1535799825.25,42481,20.63,74688.0,14.55,7.83,9.39,0,*4C
1535799826.46,42482,20.63,74688.0,14.57,7.59,9.11,0,*40
1535799827.66,42483,20.63,74688.5,14.59,7.01,8.79,0,*4D
1535799828.92,42484,20.63,74688.3,14.59,6.43,8.47,0,*40
1535799830.16,42485,20.63,74690.8,14.63,6.35,8.69,0,*45
1535799831.41,42486,20.63,74690.5,14.63,6.53,9.11,0,*48
1535799832.64,42487,20.63,74694.0,14.67,6.39,9.43,0,*46
1535799833.83,42488,20.63,74690.5,14.69,6.03,9.63,0,*4C
1535799835.04,42489,20.63,74688.0,14.71,5.33,9.67,0,*40
1535799836.23,42490,20.63,74688.8,14.77,4.27,9.75,0,*49
1535799837.41,42491,20.63,74688.8,14.81,2.99,9.07,0,*47
1535799838.62,42492,20.63,74688.3,14.85,1.93,8.83,0,*44
1535799839.82,42493,20.63,74690.3,14.89,2.05,9.63,0,*4A
1535799841.03,42494,20.63,74692.3,14.93,0.97,8.93,0,*71
1535799842.26,42495,20.63,74694.8,14.99,-1.47,7.41,0,*6B
1535799843.51,42496,20.63,74692.3,15.03,-2.95,6.17,0,*64
1535799844.77,42497,20.63,74692.3,15.07,-3.43,5.77,0,*6E
1535799846.03,42498,20.63,74690.5,15.07,-3.43,5.77,0,*61
1535799847.26,42499,20.63,74686.8,15.11,-2.31,6.39,0,*6A
1535799848.52,42500,20.63,74688.0,15.17,-2.03,6.53,0,*60
1535799849.73,42501,20.63,74686.5,15.25,-2.19,6.07,0,*6A
1535799850.99,42502,20.63,74688.3,15.29,-2.11,5.77,0,*69
1535799852.24,42503,20.63,74692.0,15.35,-2.47,4.93,0,*6D
1535799853.45,42504,20.63,74688.0,15.43,-2.75,4.07,0,*67
1535799854.71,42505,20.63,74690.3,15.51,-3.71,2.39,0,*6B
1535799855.92,42506,20.63,74690.0,15.53,-4.41,1.09,0,*6E
1535799857.13,42507,20.63,74684.3,15.61,-4.13,0.55,0,*51
1535799858.37,42508,20.63,74682.8,15.63,-4.17,-0.23,0,*74
1535799859.6,42509,20.63,74680.0,15.71,-4.45,-1.09,0,*48
1535799860.81,42510,20.63,74682.5,15.77,-3.95,-1.09,0,*4C
1535799862.07,42511,20.63,74684.8,15.81,-4.81,-2.51,0,*48
1535799863.31,42512,20.63,74686.3,15.89,-4.89,-3.11,0,*4E
1535799864.52,42513,20.63,74682.5,15.91,-5.89,-4.53,0,*46
1535799865.73,42514,20.63,74684.0,15.93,-6.13,-5.43,0,*43
1535799866.94,42515,20.63,74682.5,15.95,-5.81,-5.47,0,*48
1535799868.14,42516,20.63,74684.5,15.95,-5.55,-5.47,0,*42
1535799869.37,42517,20.63,74684.5,15.99,-4.77,-5.03,0,*4E
1535799870.59,42518,20.63,74686.8,16.03,-4.17,-4.81,0,*4C
1535799871.81,42519,20.63,74690.0,16.07,-4.25,-5.15,0,*44
1535799873.0,42520,20.63,74684.0,16.07,-4.13,-5.51,0,*4B
1535799874.25,42521,20.63,74688.3,16.13,-3.67,-5.35,0,*49
1535799875.5,42522,20.63,74688.3,16.17,-4.01,-5.97,0,*41
1535799876.72,42523,20.63,74686.3,16.21,-4.33,-6.77,0,*49
1535799877.99,42524,20.63,74686.3,16.21,-4.69,-7.31,0,*42
1535799879.23,42525,20.63,74686.3,16.21,-4.73,-7.49,0,*47
1535799880.46,42526,20.63,74688.3,16.27,-4.25,-7.01,0,*4D
1535799881.68,42527,20.63,74688.5,16.23,-3.55,-6.47,0,*4B
1535799882.89,42528,20.63,74686.0,16.27,-3.31,-6.47,0,*42
1535799884.08,42529,20.63,74686.3,16.23,-3.11,-6.39,0,*4C
1535799885.28,42530,20.63,74688.0,16.27,-2.87,-5.97,0,*49
1535799886.52,42531,20.63,74686.5,16.27,-1.47,-4.21,0,*4B
1535799887.76,42532,20.63,74686.0,16.23,-1.05,-3.47,0,*4D
1535799888.96,42533,20.63,74686.5,16.27,-0.07,-2.31,0,*4B
1535799890.17,42534,20.63,74688.0,16.27,0.87,-0.61,0,*6E
1535799891.4,42535,20.63,74690.0,16.29,0.97,0.29,0,*41
1535799892.67,42536,20.63,74686.3,16.29,1.33,1.13,0,*45
1535799893.9,42537,20.63,74684.3,16.31,0.91,1.43,0,*71
1535799895.14,42538,20.63,74686.0,16.29,-0.27,1.05,0,*55
1535799896.37,42539,20.63,74686.0,16.33,-1.63,0.63,0,*5F
1535799897.56,42540,20.63,74686.0,16.31,-3.03,0.09,0,*6B
1535799898.76,42541,20.63,74688.0,16.31,-3.91,-0.07,0,*42
1535799899.96,42542,20.63,74690.0,16.31,-4.37,-0.41,0,*78
1535799901.23,42543,20.63,74686.3,16.33,-4.01,0.25,0,*51
1535799902.45,42544,20.63,74686.0,16.33,-4.57,-0.37,0,*7B
1535799903.7,42545,20.63,74686.5,16.37,-3.35,0.47,0,*57
1535799904.93,42546,20.63,74684.0,16.41,-3.59,0.01,0,*6D
1535799906.14,42547,20.63,74688.5,16.45,-4.21,-0.15,0,*78
1535799907.36,42548,20.63,74684.8,16.47,-4.41,-0.49,0,*7A
1535799908.56,42549,20.63,74686.0,16.49,-3.95,-0.69,0,*79
1535799909.78,42550,20.63,74690.8,16.53,-5.07,-2.15,0,*4E
1535799911.02,42551,20.63,74688.5,16.55,-6.01,-3.67,0,*48
1535799912.29,42552,20.63,74686.3,16.59,-5.61,-4.01,0,*45
1535799913.57,42553,20.63,74690.3,16.59,-6.19,-5.15,0,*4C
1535799914.81,42554,20.63,74690.8,16.63,-6.47,-5.77,0,*4D
1535799916.02,42555,20.63,74686.3,16.65,-6.69,-6.27,0,*40
1535799917.27,42556,20.63,74686.8,16.67,-5.97,-5.85,0,*48
1535799918.52,42557,20.63,74688.5,16.67,-6.23,-6.35,0,*4D
1535799919.77,42558,20.63,74684.8,16.69,-5.93,-6.23,0,*43
1535799920.99,42559,20.63,74688.5,16.71,-6.43,-6.81,0,*4D
1535799922.21,42560,20.63,74690.3,16.73,-6.89,-7.35,0,*4D
1535799923.41,42561,20.63,74688.8,16.73,-8.55,-9.19,0,*43
1535799924.65,42562,20.63,74690.0,16.71,-8.55,-9.15,0,*4E
1535799925.88,42563,20.63,74688.0,16.69,-9.15,-9.79,0,*49
1535799927.1,42564,20.63,74684.5,16.69,-8.59,-9.53,0,*4F
1535799928.3,42565,20.63,74686.0,16.69,-8.89,-9.93,0,*4F
1535799929.51,42566,20.63,74688.5,16.65,-7.95,-9.19,0,*40
1535799930.73,42567,20.63,74686.5,16.65,-7.69,-8.93,0,*41
1535799931.96,42568,20.63,74686.8,16.63,-7.77,-8.55,0,*4D
1535799933.16,42569,20.63,74688.5,16.65,-8.41,-9.19,0,*49
1535799934.38,42570,20.63,74690.3,16.61,-8.71,-9.61,0,*49
1535799935.61,42571,20.63,74686.8,16.61,-8.71,-9.53,0,*49
1535799936.83,42572,20.63,74688.0,16.61,-8.67,-9.49,0,*46
1535799938.08,42573,20.63,74688.0,16.59,-8.63,-9.41,0,*40
1535799939.35,42574,20.63,74688.0,16.55,-9.61,-10.67,0,*74
1535799940.63,42575,20.63,74690.0,16.51,-9.61,-10.71,0,*76
1535799941.86,42576,20.63,74684.5,16.49,-9.49,-10.57,0,*72
1535799943.09,42577,20.63,74688.8,16.45,-8.11,-9.75,0,*4B
1535799944.34,42578,20.63,74688.5,16.43,-7.35,-9.11,0,*49
1535799945.55,42579,20.63,74686.3,16.41,-7.53,-8.67,0,*4A
1535799946.75,42580,20.63,74684.5,16.39,-7.23,-8.37,0,*41
1535799948.0,42581,20.63,74686.8,16.33,-6.93,-8.33,0,*44
1535799949.21,42582,20.63,74684.5,16.31,-5.73,-7.49,0,*4A
1535799950.42,42583,20.63,74688.3,16.31,-4.49,-6.81,0,*46
1535799951.7,42584,20.63,74688.5,16.29,-3.47,-5.89,0,*4A
1535799952.92,42585,20.63,74686.8,16.27,-2.87,-5.69,0,*46
1535799954.12,42586,20.63,74686.3,16.27,-2.23,-4.53,0,*43
1535799955.32,42587,20.63,74686.0,16.23,-2.27,-4.17,0,*42
1535799956.53,42588,20.63,74686.5,16.23,-1.83,-3.23,0,*40
1535799957.76,42589,20.63,74684.5,16.23,-1.75,-2.67,0,*49
1535799959.0,42590,20.63,74688.3,16.23,-2.75,-3.47,0,*41
1535799960.19,42591,20.63,74682.3,16.23,-3.03,-3.39,0,*49
1535799961.44,42592,20.63,74688.0,16.21,-3.79,-3.71,0,*49
1535799962.66,42593,20.63,74686.8,16.19,-4.25,-3.63,0,*4E
1535799963.88,42594,20.63,74686.0,16.19,-4.37,-3.63,0,*4A
1535799965.1,42595,20.63,74686.8,16.17,-4.25,-3.35,0,*45
1535799966.3,42596,20.63,74690.5,16.15,-4.05,-3.15,0,*44
1535799967.51,42597,20.63,74686.8,16.15,-3.79,-3.03,0,*4E
1535799968.78,42598,20.63,74682.5,16.13,-2.51,-1.91,0,*45
1535799970.04,42599,20.63,74686.0,16.15,-2.11,-1.87,0,*41
1535799971.24,42600,20.63,74684.8,16.15,-3.15,-2.87,0,*44
1535799972.46,42601,20.63,74688.3,16.17,-2.99,-2.39,0,*47
1535799973.72,42602,20.63,74684.8,16.17,-3.27,-2.51,0,*4E
1535799974.97,42603,20.63,74686.8,16.15,-3.51,-2.47,0,*4B
1535799976.17,42604,20.63,74686.5,16.15,-3.11,-1.75,0,*4A
1535799977.39,42605,20.63,74686.0,16.15,-2.35,-0.85,0,*72
1535799978.65,42606,20.63,74682.5,16.17,-2.47,-0.85,0,*76
1535799979.88,42607,20.63,74684.3,16.17,-3.35,-1.75,0,*4D
1535799981.12,42608,20.63,74688.3,16.15,-3.91,-2.63,0,*4A
1535799982.31,42609,20.63,74690.0,16.15,-4.17,-2.91,0,*4F
1535799983.51,42610,20.63,74688.0,16.15,-4.65,-3.75,0,*49
1535799984.77,42611,20.63,74688.5,16.13,-5.07,-4.29,0,*45
1535799985.98,42612,20.63,74690.8,16.11,-4.73,-4.61,0,*4A
1535799987.19,42613,20.63,74688.3,16.11,-4.57,-4.73,0,*4E
1535799988.41,42614,20.63,74686.8,16.11,-4.81,-5.51,0,*43
1535799989.62,42615,20.63,74686.8,16.05,-4.41,-5.35,0,*49
1535799990.86,42616,20.63,74686.8,16.05,-4.25,-5.61,0,*49
1535799992.11,42617,20.63,74684.0,16.05,-3.79,-5.61,0,*46
1535799993.32,42618,20.63,74684.3,16.01,-4.09,-6.13,0,*4B
1535799994.52,42619,20.63,74686.0,16.01,-4.45,-6.77,0,*40
1535799995.74,42620,20.63,74684.5,15.97,-4.05,-6.59,0,*4E
1535799996.95,42621,20.63,74684.8,15.97,-2.83,-5.47,0,*4B
1535799998.22,42622,20.63,74684.8,15.97,-2.07,-5.03,0,*44
1535799999.46,42623,20.63,74684.3,15.97,-2.23,-5.31,0,*42
1535800000.7,42624,20.63,74684.3,15.97,-2.99,-6.19,0,*4D
1535800001.94,42625,20.63,74684.3,15.97,-2.35,-5.93,0,*4B
1535800003.15,42626,20.63,74686.3,15.95,-2.47,-6.05,0,*43
1535800004.4,42627,20.63,74686.0,15.93,-1.91,-5.73,0,*4E
1535800005.63,42628,20.63,74684.3,15.93,-1.79,-5.65,0,*40
1535800006.86,42629,20.63,74688.3,15.93,-2.55,-6.55,0,*4C
1535800008.08,42630,20.63,74686.3,15.91,-3.39,-7.57,0,*4E
1535800009.34,42631,20.63,74686.8,15.89,-3.71,-8.11,0,*47
1535800010.56,42632,20.63,74690.8,15.83,-3.15,-7.43,0,*44
1535800011.78,42633,20.63,74684.8,15.81,-2.27,-6.51,0,*45
1535800013.04,42634,20.63,74690.5,15.79,-1.83,-6.19,0,*44
1535800014.26,42635,20.63,74686.0,15.77,-1.33,-5.69,0,*44
1535800015.52,42636,20.63,74684.8,15.75,-1.43,-5.93,0,*47
1535800016.76,42637,20.63,74686.3,15.75,-1.63,-6.19,0,*45
1535800017.94,42638,20.63,74684.8,15.73,-1.79,-6.13,0,*4D
1535800019.16,42639,20.63,74686.5,15.69,-1.05,-5.35,0,*4B
1535800020.43,42640,20.63,74686.8,15.67,-1.43,-5.77,0,*4F
1535800021.67,42641,20.63,74684.0,15.61,-1.47,-5.81,0,*45
1535800022.91,42642,20.63,74686.8,15.55,-0.85,-4.99,0,*76
1535800024.12,42643,20.63,74682.3,15.55,-0.33,-4.33,0,*7A
1535800025.33,42644,20.63,74686.8,15.53,-0.23,-4.13,0,*78
1535800026.55,42645,20.63,74686.5,15.49,0.29,-3.55,0,*50
1535800027.74,42646,20.63,74680.8,15.47,0.37,-3.19,0,*5A
1535800028.96,42647,20.63,74686.5,15.45,0.63,-2.79,0,*5F
1535800030.19,42648,20.63,74686.0,15.43,1.33,-1.71,0,*69
1535800031.39,42649,20.63,74688.3,15.39,1.83,-0.93,0,*53
1535800032.62,42650,20.63,74686.8,15.37,1.85,-0.73,0,*5D
1535800033.8,42651,20.63,74680.8,15.35,2.35,0.01,0,*4E
1535800034.97,42652,20.63,74684.8,15.35,2.31,0.01,0,*49
1535800036.18,42653,20.63,74686.5,15.35,2.61,0.51,0,*78
1535800037.42,42654,20.63,74684.0,15.33,2.69,0.63,0,*70
1535800038.63,42655,20.63,74686.3,15.31,2.65,0.83,0,*71
1535800039.87,42656,20.63,74684.3,15.29,2.73,0.79,0,*79
1535800041.08,42657,20.63,74684.0,15.27,2.81,1.01,0,*45
1535800042.28,42658,20.63,74684.3,15.23,2.69,0.97,0,*76
1535800043.51,42659,20.63,74684.8,15.23,3.49,1.85,0,*46
1535800044.74,42660,20.63,74686.5,15.17,3.45,1.75,0,*48
1535800046.0,42661,20.63,74686.0,15.15,3.79,2.13,0,*47
1535800047.24,42662,20.63,74686.5,15.13,4.71,3.15,0,*4A
1535800048.45,42663,20.63,74686.8,15.13,4.53,2.89,0,*4F
1535800049.65,42664,20.63,74686.8,15.09,5.07,3.67,0,*42
1535800050.86,42665,20.63,74684.8,15.09,5.89,4.53,0,*45
1535800052.1,42666,20.63,74684.8,15.07,6.47,5.23,0,*4F
1535800053.28,42667,20.63,74686.5,15.05,6.07,4.89,0,*49
1535800054.49,42668,20.63,74684.8,15.05,6.53,5.41,0,*42
1535800055.72,42669,20.63,74686.0,15.05,6.61,5.73,0,*43
1535800056.95,42670,20.63,74682.0,15.05,6.39,5.51,0,*46
1535800058.16,42671,20.63,74684.5,15.01,6.57,5.95,0,*43
1535800059.37,42672,20.63,74680.0,15.03,7.41,6.79,0,*45
1535800060.61,42673,20.63,74684.0,15.03,7.55,7.19,0,*46
1535800061.82,42674,20.63,74686.0,15.01,7.61,7.29,0,*47
1535800063.06,42675,20.63,74680.0,15.03,7.77,7.55,0,*48
1535800064.33,42676,20.63,74684.8,15.03,7.91,7.69,0,*4C
1535800065.56,42677,20.63,74680.5,15.01,7.87,7.73,0,*43
1535800066.8,42678,20.63,74682.3,15.01,7.77,7.77,0,*47
1535800068.03,42679,20.63,74682.3,15.01,7.77,7.83,0,*4D
1535800069.27,42680,20.63,74682.5,15.01,7.83,7.95,0,*47
1535800070.49,42681,20.63,74684.0,15.01,7.83,7.87,0,*45
1535800071.67,42682,20.63,74680.5,15.01,7.45,7.55,0,*43
1535800072.88,42683,20.63,74684.5,15.01,7.55,7.83,0,*48
1535800074.07,42684,20.63,74676.5,15.01,8.23,8.61,0,*42
1535800075.33,42685,20.63,74684.0,15.03,8.33,8.75,0,*45
1535800076.57,42686,20.63,74682.3,15.03,8.37,8.69,0,*4F
1535800077.83,42687,20.63,74686.5,15.03,8.13,8.47,0,*44
1535800079.07,42688,20.63,74684.3,15.03,8.15,8.47,0,*4D
1535800080.28,42689,20.63,74686.0,15.03,8.27,8.65,0,*4D
1535800081.52,42690,20.63,74680.0,15.03,8.33,8.69,0,*4C
1535800082.75,42691,20.63,74684.8,15.05,8.47,8.89,0,*46
1535800083.96,42692,20.63,74680.0,15.07,8.61,8.87,0,*4D
1535800085.16,42693,20.63,74682.8,15.07,8.69,9.07,0,*4D
1535800086.39,42694,20.63,74684.8,15.07,8.83,9.15,0,*4D
1535800087.62,42695,20.63,74678.8,15.07,8.71,9.03,0,*46
1535800088.86,42696,20.63,74680.0,15.07,8.59,8.87,0,*42
1535800090.07,42697,20.63,74680.3,15.11,9.03,9.43,0,*43
1535800091.3,42698,20.63,74684.3,15.11,9.11,9.43,0,*4F
1535800092.51,42699,20.63,74682.8,15.11,9.33,9.71,0,*4F
1535800093.72,42700,20.63,74680.3,15.15,9.47,9.91,0,*47
1535800094.95,42701,20.63,74682.0,15.15,9.49,9.95,0,*4C
1535800096.2,42702,20.63,74682.8,15.17,9.71,10.23,0,*73
1535800097.44,42703,20.63,74680.5,15.17,9.61,10.13,0,*70
1535800098.69,42704,20.63,74680.5,15.25,9.67,10.23,0,*73
1535800099.92,42705,20.63,74680.8,15.25,10.65,11.17,0,*4E
1535800101.19,42706,20.63,74680.3,15.29,10.37,10.95,0,*4D
1535800102.42,42707,20.63,74684.0,15.33,10.65,11.21,0,*4E
1535800103.64,42708,20.63,74682.5,15.35,10.47,10.99,0,*45
1535800104.9,42709,20.63,74684.0,15.37,9.81,10.37,0,*70
1535800106.09,42710,20.63,74684.0,15.43,10.33,10.85,0,*43
1535800107.35,42711,20.63,74686.8,15.45,10.79,11.31,0,*44
1535800108.55,42712,20.69,74686.0,15.47,11.09,11.47,0,*42
1535800109.77,42713,20.63,74680.0,15.51,10.85,11.17,0,*44
1535800111.0,42714,20.63,74680.0,15.55,10.57,10.89,0,*4E
1535800112.25,42715,20.63,74682.3,15.59,10.17,10.31,0,*44
1535800113.52,42716,20.63,74682.8,15.59,10.57,10.71,0,*47
1535800114.76,42717,20.63,74682.3,15.63,10.75,10.89,0,*48
1535800115.98,42718,20.63,74680.3,15.69,10.31,10.47,0,*4F
1535800117.21,42719,20.63,74680.3,15.71,9.81,9.91,0,*47